Voltar ao catálogo

ELECTRON KICK STAGE R/B

AtivoSSO
NORAD 62086·ROCKET BODY·🇺🇸 United States

Lançado Nov 25, 2024 de Rocket Lab Launch Complex 1

Loading…

Próximas Passagens (próximas 24 horas)

TLE

AtualizadoSource: Space-Track

Época: Sep 14, 2026, 11:39 UTC

1 62086U 24219F   26257.48564933  .00001972  00000-0  17070-3 0  9991
2 62086  97.9888  77.1048 0051239  17.3548 342.9409 14.97397853 98305

Acompanhe ELECTRON KICK STAGE R/B em tempo real com AllMySat

Download on the App Store